Location: Earls Croome
(52.0667°N, 2.2000°W)
Time: 21:10:08
(UTC+00:00)

NOAA 6 - Pass Details

Date: 17 November 2019
Orbit: 771 x 788 km, 98.6° (Epoch: 12 December)

Event Time Altitude Azimuth Distance (km) Brightness Sun altitude
Rises 05:45:53 0° 17° (NNE) 3,270 7.3 -16.0°
Reaches altitude 10° 05:48:14 10° 20° (NNE) 2,336 6.6 -15.6°
Maximum altitude 05:53:22 68° 103° (ESE) 836 4.4 -14.9°
Drops below altitude 10° 05:58:27 10° 187° (S) 2,313 6.6 -14.1°
Sets 06:00:45 0° 189° (S) 3,235 7.3 -13.8°
